sat.trackr.live / text

‹ back to catalog

STARLINK-3451

NORAD 51749 · 2022-016AM

PAYLOAD ACTIVE UNKNOWN

§ Identity

Operator
Country
US
Launch date
2022-02-21
Launch site
AFETR
Launch vehicle
Mass (kg)
RCS (m²)

Purposes: comms

External: N2YO · Heavens-Above · Gunter

§ Orbital elements

Epoch: 2026-05-24T21:54:32.186592Z

Period
95.44 min
Inclination
53.2140°
Eccentricity
0.0001315
Mean motion
15.08838033 rev/d
Perigee alt
538.8 km
Apogee alt
540.7 km
Semi-major
6,917.9 km
B*
2.4174e-5
RAAN
337.1224°
Arg perigee
84.2844°
Mean anomaly
275.8298°
Rev number
23,506

§ Raw data

STARLINK-34511 51749U 22016AM  26144.91287253  .00000097  00000+0  24174-4 0  99982 51749  53.2140 337.1224 0001315  84.2844 275.8298 15.08838033235061

JSON: /api/v1/satellites/51749 · /tle

For live sub-satellite position, see the globe view (requires WebGL).

§ Visibility from observer

Set your observer location to see the next 7 days of passes ≥ 10°. The values pass through the URL so the page stays shareable.

No JS? Fill the form by hand. The geolocation button needs JavaScript.